Weather in Myaundzha

Russia / Magadan District     63°03′05″N   147°10′51″E
temp.,
°C
wind,
m/s
gust,
m/s
humid.,
%
clouds,
%
prec.,
mm/h
press.,
hPa
HPBL,
m
12 august, fri
fri1223:00+10sw1195100 1.1 100314
02:00+10sw1192100 0.1 100311
05:00+10ssw1191100 0.1 100310
08:00+12wsw1184100 0.0 1004207
11:00+14w017399 0.1 1005806
14:00+15sse2264100 0.7 1004885
17:00+15s3369100 2.9 1005357
20:00+13sse2283100 0.9 100729
13 august, sat
sat1323:00+11e1190100 2.1 100813
02:00+11ene1188100 0.1 100912
05:00+9se228897 0.1 100910
08:00+13ese12765 0.0 1010235
11:00+16sse23576 0.0 10091256
14:00+18sse334458 0.1 10071846
17:00+19se234197 0.1 10071999
20:00+15ese3356100 0.0 100843
14 august, sun
sun1423:00+14ese2260100 0.0 100811
02:00+14e116279 0.0 100810
05:00+12ene117099 0.1 100910
08:00+14ne1165100 0.1 100951
11:00+19e564587 0.5 10081659
14:00+19ese7746100 0.4 10071701
17:00+16ese5760100 1.3 1008838
20:00+13e4779100 1.3 1010264
15 august, mon
mon1523:00+11e1292100 3.8 101171
02:00+10ene1295100 2.9 101192
05:00+10ene1293100 5.1 1010101
08:00+10e2289100 0.8 1010246
11:00+10e1290100 1.3 1010235
14:00+11ese1281100 0.3 1009533
17:00+11ese2280100 0.3 1009503
20:00+11e118284 0.0 1008142
16 august, tue
tue1623:00+10e118786 0.0 100811
02:00+9e118792 0.0 100710
05:00+9nne1185100 0.0 100614
08:00+10ne1279100 0.0 1005128
11:00+12nne226692 0.0 1003568
14:00+15ne2353100 0.0 10001156
17:00+15ene2457100 0.3 999913
20:00+13ene3666100 0.2 999174